This demonstration page uses our WeatherBlox Daily Observations layout. Learn more.

Left ArrowRight Arrow

44.8408, -93.29828

Hourly Observations for December 17, 2019

Temp ( °F °C ) Dew Point ( °F °C ) Humidity (%) Winds ( mph kmh ) Pressure ( in mb ) Visibility ( mi km ) Precip ( " mm )
12:50 am 00:50 Cloudy 21 -6 18 -8 86 86 WSW 10 17 30.19 1022 7 11 0.00 0.00
12:53 am 00:53 Cloudy 21 -6.1 17 -8.3 85 85 WSW 9 15 30.16 1021 7 11 0.00 0.00
1:53 am 01:53 Cloudy with Mist and Fog 21 -6.1 18 -7.8 88 88 WSW 9 15 30.15 1021 6 10 0.00 0.00
2:53 am 02:53 Cloudy with Mist and Fog 22 -5.6 18 -7.8 85 85 WSW 8 13 30.14 1021 5 8 0.00 0.00
3:53 am 03:53 Cloudy with Mist and Fog 22 -5.6 19 -7.2 89 89 WSW 8 13 30.13 1020 6 10 0.00 0.00
4:53 am 04:53 Cloudy with Mist and Fog 23 -5 19 -7.2 85 85 WSW 10 17 30.11 1020 6 10 0.00 0.00
5:53 am 05:53 Cloudy 23 -5 19 -7.2 85 85 WSW 9 15 30.11 1020 7 11 0.00 0.00
6:15 am 06:15 Cloudy 22 -5.6 18 -7.8 85 85 W 9 15 30.14 1021 7 11 0.00 0.00
6:53 am 06:53 Cloudy 22 -5.6 18 -7.8 85 85 WSW 8 13 30.11 1020 7 11 0.00 0.00
7:04 am 07:04 Cloudy 22 -5.6 18 -7.8 85 85 WSW 7 11 30.13 1020 7 11 0.00 0.00
7:53 am 07:53 Mostly Sunny 20 -6.7 16 -8.9 85 85 W 7 11 30.11 1020 8 13 0.00 0.00
8:27 am 08:27 Mostly Cloudy 20 -6.7 16 -8.9 85 85 W 7 11 30.15 1021 8 13 0.00 0.00
8:53 am 08:53 Partly Cloudy 20 -6.7 16 -8.9 85 85 W 7 11 30.12 1020 8 13 0.00 0.00
9:53 am 09:53 Mostly Cloudy 21 -6.1 16 -8.9 81 81 W 7 11 30.13 1020 7 11 0.00 0.00
10:22 am 10:22 Cloudy 23 -5 17 -8.3 78 78 W 6 9 30.14 1021 7 11 0.00 0.00
10:53 am 10:53 Cloudy 23 -5 17 -8.3 78 78 WNW 6 9 30.12 1020 7 11 0.00 0.00
11:53 am 11:53 Cloudy 25 -3.9 17 -8.3 72 72 W 10 17 30.10 1019 8 13 0.00 0.00
12:53 pm 12:53 Cloudy 25 -3.9 18 -7.8 75 75 NW 8 13 30.10 1019 8 13 0.00 0.00
1:53 pm 13:53 Cloudy 26 -3.3 18 -7.8 71 71 W 10 17 30.10 1019 9 14 0.00 0.00
2:46 pm 14:46 Cloudy 26 -3.3 18 -7.8 71 71 WNW 10 17 30.13 1020 9 14 0.00 0.00
2:53 pm 14:53 Mostly Cloudy 26 -3.3 17 -8.3 69 69 NW 13 20 30.11 1020 9 14 0.00 0.00
3:22 pm 15:22 Mostly Cloudy 25 -3.9 16 -8.9 69 69 NW 13 20 30.14 1021 9 14 0.00 0.00
3:53 pm 15:53 Mostly Cloudy 25 -3.9 15 -9.4 66 66 NW 16 26 30.13 1020 10 16 0.00 0.00
4:53 pm 16:53 Partly Cloudy 22 -5.6 12 -11.1 66 66 NNW 14 22 30.16 1021 10 16 0.00 0.00
5:53 pm 17:53 Mostly Clear 19 -7.2 8 -13.3 62 62 N 13 20 30.20 1023 10 16 0.00 0.00
6:53 pm 18:53 Mostly Clear 15 -9.4 -1 -18.3 49 49 NNW 15 24 30.24 1024 10 16 0.00 0.00
7:53 pm 19:53 Mostly Clear 12 -11.1 -4 -20 48 48 N 13 20 30.27 1025 10 16 0.00 0.00
8:53 pm 20:53 Clear 8 -13.3 -9 -22.8 45 45 N 16 26 30.29 1026 10 16 0.00 0.00
9:53 pm 21:53 Clear 5 -15 -10 -23.3 49 49 N 16 26 30.32 1027 10 16 0.00 0.00
10:53 pm 22:53 Clear 3 -16.1 -10 -23.3 54 54 N 8 13 30.32 1027 10 16 0.00 0.00
11:53 pm 23:53 Clear 2 -16.7 -11 -23.9 54 54 N 9 15 30.33 1027 10 16 0.00 0.00

Powered by AerisWeather